User: anonymous   Login
Location: Unspecified
(0.0000°N, 0.0000°E)
Time: 14:25:33
(UTC+00:00)
Language:

Gonets-D1 - Orbit

View from above orbital plane
View from above orbital plane
View from above satellite
View from above satellite

Ground track
Ground track

The orbit data is extracted from the following two-line orbital elements,

1 23787U 96009A   18267.67495668 -.00000006 +00000-0 -89349-4 0  9991
2 23787 082.5761 306.1195 0010348 343.8647 154.7109 12.64034329042696
Epoch (UTC): 24 September 2018 16:11:56
Eccentricity: 0.0010348
inclination: 82.5761°
perigee height: 1398 km
apogee height: 1414 km
right ascension of ascending node: 306.1195°
argument of perigee: 343.8647°
revolutions per day: 12.64034329
mean anomaly at epoch: 154.7109°
orbit number at epoch: 4269

The dashed part of the orbit path shows where the satellite is in the earth's shadow,  

DLR